COSMOS 2251 DEB, 34689

Orbit data source: Space-Track

COSMOS 2251 DEB, 34689 is space debris in LEO originally from a launch on Wed, 16 Jun 1993 UTC launched from the Plesetsk Missile And Space Complex (PKMTR). The debris from Iridium 33, an American commercial communications satellite, has been tracked extensively since its accidental collision with the defunct Russian satellite Cosmos 2251 in 2009. This event, occurring at high speed in low Earth orbit (LEO), generated thousands of pieces of space debris, significantly increasing the risk of further collisions. The Iridium 33 debris cloud has impacted space traffic management and orbital debris mitigation strategies, making it a subject of ongoing study in space situational awareness.

Loading next visibility...
Identifier
34689, 1993-036YK
Orbit
LEO
Country
Flag of CISCIS
Related business
Manufacturer
Unknown
Mission
Spacecraft
Bus & Motor
Unknown
Mass
Unknown
Launch date (UTC)
1993-06-16 (32 years ago)
Launch vehicle
Unknown
Launch site
Plesetsk Missile And Space Complex (PKMTR)
Object type
Payload
Rocket body
Debris
Shape & HBR
Unknown shape, 0.1 m
Radar Cross Section
Small (<0.1 m²)

Expand to show TLE details & history
Last TLE update: 21 hours ago

TLE from 21 hours ago
0 COSMOS 2251 DEB
1 34689U 93036YK  25299.41754153  .00007304  00000-0  37212-2 0  9999
2 34689  74.0879 305.6149 0230592  24.6571  94.1970 14.03092128836772
Epoch: 2025-10-26T10:01Z
TLE epoch observation values (Epoch: 2025-10-26T10:01:15.588Z)
Latitude
55.20295°
Longitude
-83.81843°
Altitude
907.989 km
Speed
7.395 km/s
True Right ascension
06h 46m 07s
True Declination
55° 02' 42"
Sunlit
Object was in daylight at epoch
Visualization orbit readout
Latitude
Unknown
Longitude
Unknown
Altitude
Unknown
Speed
Unknown
Apparent Right ascension
Unknown
Apparent Declination
Unknown
Sunlit
N/A
Visualization observer readout
Local Sidereal Time
02:48:09
Azimuth
Unknown
Elevation
Unknown
Doppler factor
Unknown
Orbital elements
Apogee altitude
1,048.146 km
Perigee altitude
713.377 km
Semi-major axis
7,258.899 km
Eccentricity
0.02306
Inclination
74.0879°
RAAN
305.6149°
Arg. of periapsis
24.6571°
True anomaly
96.82583°
Mean anomaly
94.197°
Eccentric anomaly
95.51209°
Mean motion
3.50943 °/min
Orbital period
102.58 mins
BSTAR
0.0037212
Loading maneuver chart data...
Computing Atmospheric mass density...

Documentation

Showing up to 5 results
|